Theta_e
318 320 321 324 326 327 327 327 326 323 327 324 318 322 319 319 322 319 319 319 318 316 315 316 316 316 318 317 316 316 315 316 317 327 330 318 319 319 316 320 327 330 328 328 329 328 324 319 318 323 325 326 329 330 330 333 332 332 332 331 331 328 328 330 330 331 330 331 333 335 335 335 335 335 335 334 334 333 333 332 331 331 330 331 332 333 334 334 332 330 326 323 320 319 319 319 317
317 319 323 326 327 329 327 326 333 331 329 322 318 321 316 318 320 319 322 321 318 315 315 315 315 314 314 314 314 316 316 317 317 319 319 317 319 317 316 317 321 327 329 330 329 326 321 316 312 317 323 324 326 328 329 333 333 332 332 331 332 331 331 332 330 331 331 330 330 331 333 334 335 334 334 335 335 334 333 332 332 332 331 331 330 331 332 333 333 332 331 328 324 320 319 319 319
317 321 322 325 327 327 328 327 330 331 330 324 322 324 317 318 320 321 321 317 316 314 315 314 314 313 313 314 314 316 316 316 317 317 317 318 318 317 319 318 318 320 323 324 323 321 318 314 312 313 319 323 325 326 326 330 332 333 332 331 331 331 331 332 331 332 333 332 330 329 328 330 332 332 332 333 334 334 333 329 328 330 331 332 331 330 330 332 332 331 330 330 329 324 320 318 319
318 322 322 325 326 326 336 337 333 333 329 324 322 324 322 321 322 321 316 314 315 315 316 314 314 313 313 315 313 315 314 315 317 317 316 316 317 318 318 318 318 316 316 316 315 315 315 314 313 313 315 319 322 325 325 326 328 330 332 332 330 330 331 332 332 332 332 333 332 331 329 328 329 331 330 329 330 330 330 327 326 326 327 328 330 331 330 330 330 329 327 329 331 329 325 319 317
319 321 321 325 326 324 334 332 331 332 324 324 322 322 329 327 323 318 314 314 314 315 315 313 313 312 313 313 312 314 313 314 315 315 313 313 315 316 316 317 317 316 314 314 314 314 314 314 314 314 314 315 318 321 324 325 326 327 329 331 331 331 331 331 331 332 332 333 333 333 332 331 331 331 331 330 329 328 326 327 327 325 324 322 326 330 330 329 329 328 327 329 331 332 330 325 319
321 322 322 323 324 320 325 322 322 326 321 327 324 319 327 323 317 315 313 314 314 315 315 313 313 312 311 311 311 312 312 313 313 313 311 311 313 313 314 315 315 315 315 314 314 314 314 314 314 314 314 314 315 317 320 322 324 325 326 328 330 331 331 331 331 331 332 333 333 333 333 333 332 331 331 331 331 331 329 328 327 326 326 323 323 328 329 328 327 327 327 328 330 331 332 330 325
320 322 322 322 322 319 326 326 322 324 318 319 324 321 319 315 313 313 314 314 314 314 314 313 312 312 312 310 310 310 311 312 310 311 310 310 310 311 311 312 313 313 313 313 313 313 312 312 313 312 312 312 313 313 315 317 319 322 325 327 329 330 330 331 331 331 331 332 333 333 334 334 333 333 332 332 332 333 331 329 326 325 327 326 326 326 325 325 326 327 326 326 328 330 331 332 330
320 321 321 325 330 327 330 327 321 324 317 312 318 318 314 313 313 313 314 314 314 313 313 312 312 314 312 310 310 309 310 310 310 310 309 309 309 310 310 309 310 310 310 310 309 309 309 309 310 310 310 310 311 311 311 312 314 316 319 323 326 328 329 330 330 330 331 332 332 333 333 334 334 334 333 333 334 333 332 330 328 326 326 325 325 323 321 322 324 325 326 327 327 329 330 331 331
320 321 320 325 332 330 328 321 317 320 318 315 314 314 313 314 314 313 313 313 313 312 312 312 312 314 311 308 309 308 308 308 309 309 309 309 309 309 309 309 308 308 308 307 307 307 307 308 308 308 308 308 308 308 309 309 310 311 312 314 318 322 325 326 328 329 330 330 331 332 332 333 333 333 334 334 334 333 332 330 329 329 328 325 322 319 318 321 324 324 325 327 328 329 329 330 331
319 322 319 326 331 326 323 319 320 319 316 316 313 314 314 313 313 312 313 313 312 311 311 311 311 312 309 308 308 307 308 308 308 308 309 308 308 308 308 308 307 307 307 306 306 306 306 306 306 307 306 307 307 307 307 307 307 307 308 308 310 312 315 318 322 324 326 328 328 330 331 331 332 332 333 333 334 333 333 332 330 329 328 327 324 320 316 316 320 323 325 327 328 329 329 329 330
320 319 320 329 330 323 323 322 321 318 317 317 313 314 314 313 313 311 312 313 312 311 310 312 311 308 307 306 307 307 307 307 307 308 308 307 307 307 308 307 306 306 306 305 305 305 306 306 306 306 306 306 306 306 306 306 306 306 307 307 307 307 308 309 312 315 319 321 323 325 326 328 329 330 331 331 332 332 332 332 332 331 329 328 327 324 321 317 315 318 322 326 327 327 328 328 328
319 322 334 339 329 322 324 323 319 318 322 322 314 314 314 313 314 311 311 312 311 311 310 311 311 308 307 306 305 306 306 307 307 307 306 306 306 307 307 306 305 305 305 305 305 305 305 306 306 306 306 305 305 305 304 304 305 305 305 306 306 306 306 306 307 308 310 312 315 318 320 323 324 326 327 328 329 330 330 331 331 332 331 330 329 327 325 323 319 316 316 322 325 324 325 326 327
318 322 338 333 323 323 322 321 320 321 323 320 314 313 315 312 313 312 311 311 310 311 311 310 310 310 308 306 305 305 305 306 306 306 305 305 306 306 306 305 304 304 304 304 305 305 305 306 306 305 305 304 303 302 302 302 302 302 302 303 304 304 305 306 306 306 306 307 308 310 313 316 318 320 321 323 324 325 326 327 329 330 331 332 331 330 327 325 324 321 315 315 321 322 322 323 325
317 318 329 325 319 322 320 319 319 320 318 317 315 312 313 312 312 311 312 313 310 310 311 310 310 311 308 304 304 304 305 306 305 305 305 305 305 305 305 304 304 304 304 305 305 305 305 305 305 305 304 303 303 302 302 301 301 301 301 301 301 301 302 303 304 305 305 306 306 306 307 309 312 315 318 319 320 320 321 322 324 325 327 329 330 331 329 327 326 325 321 316 315 318 320 320 323
317 317 330 332 325 321 317 319 321 324 318 316 315 312 312 311 311 311 312 314 311 309 310 310 310 311 310 307 306 305 305 305 304 304 304 304 304 304 304 304 304 304 305 305 305 305 305 305 304 304 303 303 302 302 302 301 302 301 301 301 300 300 300 301 301 302 303 303 305 305 306 306 307 309 313 317 318 319 319 319 320 321 322 324 326 327 328 328 328 327 326 322 316 315 318 319 321
318 320 336 336 326 321 317 318 321 323 318 314 313 312 312 310 311 312 310 312 310 309 310 310 309 310 310 308 308 305 304 304 303 304 303 303 303 303 304 304 304 304 305 305 305 305 304 304 303 303 302 302 302 301 301 301 301 301 301 301 300 300 300 300 300 300 301 301 302 303 304 305 305 306 307 310 315 318 319 320 320 320 320 320 321 323 324 325 328 329 328 327 323 319 318 319 319
318 325 342 336 325 321 317 318 319 321 319 314 311 312 313 311 310 310 309 310 310 308 308 309 308 309 308 307 307 304 304 303 303 302 302 303 303 304 304 304 304 304 304 304 304 304 303 303 302 302 301 301 301 301 301 301 301 301 301 301 301 300 300 300 300 300 300 300 300 300 301 302 304 304 305 305 308 312 316 318 320 320 321 321 321 321 323 324 326 329 329 329 328 324 321 320 320
321 334 337 326 322 318 318 321 317 317 318 314 311 311 314 313 309 308 309 307 306 307 306 307 307 307 307 306 304 303 303 302 302 302 302 304 304 304 305 305 304 304 304 304 303 303 302 301 301 301 301 300 300 300 300 300 300 300 300 300 300 300 300 300 300 300 299 299 299 299 300 300 300 301 302 303 304 306 309 313 317 319 320 321 322 323 323 323 325 327 328 328 328 328 325 322 320
321 332 328 322 325 317 314 317 312 313 315 313 312 311 313 314 309 309 310 305 303 305 303 303 305 304 304 304 303 303 303 302 302 302 303 304 304 305 304 304 304 304 303 303 302 301 301 300 300 300 300 300 300 300 300 300 300 300 300 300 300 299 299 299 299 299 299 299 299 299 299 299 299 299 299 300 301 302 303 306 310 314 318 320 321 323 323 323 325 325 326 327 328 328 327 325 321
317 323 323 323 323 315 311 313 312 314 314 313 311 310 311 311 310 310 309 304 303 304 303 302 302 302 303 303 302 302 302 302 303 303 304 304 304 304 304 303 303 303 302 302 301 300 300 300 300 300 300 300 299 299 299 299 299 299 299 299 299 299 299 299 299 299 298 298 298 298 298 298 298 298 298 298 298 299 300 302 303 306 311 315 318 320 322 323 324 324 325 326 327 327 327 328 323
315 318 322 320 315 314 314 313 314 314 314 314 311 310 311 310 310 309 307 307 306 303 305 306 306 304 303 302 302 302 302 302 303 303 303 303 303 302 302 302 301 301 300 300 300 299 299 299 299 299 298 298 298 298 298 298 298 298 298 298 298 298 298 298 298 298 298 298 298 298 298 298 298 298 298 298 298 297 298 299 300 301 303 307 312 316 319 320 322 323 324 325 326 327 327 328 327
315 314 316 315 312 314 315 313 314 314 313 313 310 311 312 310 309 308 308 312 311 307 308 309 308 307 305 303 302 301 302 303 303 302 302 302 301 301 300 300 300 300 299 299 299 298 298 297 297 297 297 296 296 296 296 296 297 297 297 297 297 297 297 297 297 297 297 297 297 297 297 297 297 297 298 298 298 297 297 297 298 298 299 301 304 308 312 315 318 320 323 324 324 326 326 327 327
317 315 311 312 312 313 314 313 314 313 313 312 310 311 311 308 309 308 308 311 311 310 310 308 307 307 305 304 303 302 302 302 302 302 301 301 300 300 300 300 300 300 299 298 298 297 296 296 296 296 295 295 295 295 295 296 296 296 296 296 296 296 296 296 296 296 296 297 296 297 297 296 297 297 297 297 297 297 297 297 297 297 297 298 299 301 305 308 312 315 319 322 323 324 325 325 326
317 317 311 312 313 312 314 313 313 313 312 312 311 312 309 309 310 308 307 309 309 309 309 307 306 305 304 303 303 302 302 301 301 301 301 300 300 299 299 299 299 299 298 297 297 296 296 296 296 295 295 295 295 295 295 296 296 296 296 296 296 296 296 296 296 296 296 296 296 296 296 296 296 296 296 296 296 297 297 297 297 296 296 296 296 297 299 302 305 309 313 318 321 323 324 325 325
316 317 313 312 313 313 314 313 313 313 312 311 311 310 309 310 310 307 306 308 307 308 307 305 305 304 303 303 303 302 301 301 301 301 300 300 299 298 298 299 299 298 297 296 296 296 295 295 295 295 295 295 295 295 295 295 295 296 296 296 296 296 296 296 296 295 295 295 295 296 296 296 296 296 296 296 296 296 296 296 296 296 296 295 295 296 296 298 300 303 307 312 317 320 322 324 324
313 314 313 312 312 312 312 312 312 312 312 311 310 310 308 308 308 307 307 307 307 306 306 305 304 303 303 302 302 302 301 301 300 300 299 298 297 297 298 298 297 296 296 296 295 295 295 295 295 295 294 294 294 294 295 295 295 295 296 296 296 296 296 296 296 295 295 295 295 295 296 296 296 296 296 296 296 296 296 296 296 296 296 295 295 295 295 296 297 298 301 305 310 315 319 322 322
312 312 312 312 312 312 311 311 312 312 311 310 311 311 308 306 308 310 306 304 305 305 304 303 303 303 302 301 301 301 300 300 299 298 298 296 296 296 296 297 296 295 295 295 295 294 294 294 294 294 294 294 294 294 295 295 295 295 295 296 296 296 296 296 296 296 295 295 295 296 296 295 296 296 296 296 296 296 296 295 296 295 295 295 295 294 295 295 295 296 297 299 303 308 313 318 319
311 311 312 312 310 311 311 310 311 311 311 310 311 311 307 305 309 311 306 304 305 304 303 302 302 302 301 301 300 300 299 299 298 297 296 296 295 295 295 295 294 294 294 294 294 294 294 294 294 294 293 294 294 294 294 294 295 295 295 295 295 296 296 296 295 295 295 295 295 295 295 295 295 295 295 296 296 296 296 295 295 295 295 295 295 294 294 294 295 295 296 296 298 300 305 311 315
311 311 314 314 314 315 311 310 310 310 312 310 310 312 310 309 310 310 307 304 303 303 303 301 301 301 300 300 299 299 299 297 296 296 296 295 295 295 295 295 294 294 294 294 294 294 294 293 293 293 293 293 293 294 294 294 294 294 295 295 295 295 295 295 295 295 295 295 295 295 295 295 295 295 295 295 295 295 295 295 295 295 295 295 295 295 294 294 294 294 295 295 296 297 299 304 310
312 310 312 317 319 320 311 308 310 309 311 310 310 314 315 313 310 307 306 304 302 301 302 301 300 300 300 300 299 299 298 296 296 296 295 295 295 295 295 295 294 294 294 293 293 293 293 293 293 293 292 293 293 293 293 293 294 294 294 295 295 295 295 295 295 295 295 295 294 294 294 294 294 294 294 294 294 294 294 294 294 294 294 294 294 294 294 294 294 294 295 295 295 296 297 299 303
314 310 316 320 317 324 316 308 310 311 311 310 310 314 314 314 310 306 305 303 303 301 300 300 300 300 299 299 299 299 297 296 296 295 295 295 294 294 294 294 294 294 294 293 293 293 293 292 292 292 292 292 292 293 293 293 293 294 294 295 295 295 295 295 294 294 294 294 294 294 294 294 294 294 294 294 294 294 294 294 294 294 293 293 293 293 294 294 294 294 294 294 295 295 296 297 298
319 313 323 324 315 324 322 307 307 312 311 308 311 315 313 313 310 307 305 303 303 301 300 300 300 299 299 299 299 298 297 295 295 295 295 294 294 294 294 293 293 294 294 293 293 293 292 292 291 292 292 292 292 292 292 292 293 293 294 295 295 295 295 294 294 294 293 293 293 294 294 294 294 294 294 294 294 293 293 293 294 294 293 293 293 293 293 293 294 294 294 294 294 295 295 296 296
325 317 320 326 318 318 317 309 306 309 311 309 310 314 314 313 308 305 304 302 301 300 299 299 299 300 299 299 299 298 297 295 294 294 294 294 294 294 293 293 294 294 293 293 293 292 292 291 291 291 291 291 292 292 292 292 293 294 294 295 295 295 295 295 294 293 293 293 293 293 293 294 294 294 294 294 294 294 293 293 293 293 293 293 293 292 292 292 293 293 294 294 294 295 295 295 296
327 321 318 321 318 312 314 314 308 306 310 311 311 311 312 312 307 303 303 302 300 299 299 299 299 299 299 299 299 298 297 296 295 295 294 294 293 293 293 294 294 294 293 293 292 292 291 291 291 291 291 291 291 291 291 292 293 294 294 295 295 294 294 294 293 293 292 292 292 292 293 293 293 293 293 293 293 293 293 293 293 293 293 293 292 292 291 292 292 293 293 294 294 294 295 295 295
320 319 317 316 315 311 312 314 309 308 311 312 312 312 310 311 308 304 302 302 300 299 300 300 299 299 299 299 298 298 298 296 296 295 294 294 293 293 293 294 294 293 293 292 292 291 291 291 291 291 291 291 291 291 291 292 293 294 294 294 294 294 293 293 293 292 292 291 292 292 293 293 293 293 293 293 293 293 293 293 293 293 293 293 293 292 291 291 291 292 292 293 294 294 294 295 295
313 314 315 313 313 311 310 310 308 307 310 310 310 311 310 309 309 306 303 301 300 299 300 300 299 298 298 298 298 298 298 297 296 295 294 293 293 293 293 294 294 293 292 291 291 291 291 291 291 291 291 291 291 291 292 293 293 293 293 293 293 293 293 293 292 292 292 291 292 292 292 293 293 293 293 292 292 292 293 293 293 293 292 293 293 292 291 290 290 291 292 293 294 294 294 295 295
309 312 313 311 311 310 309 310 307 305 308 311 309 309 309 308 309 307 304 302 299 298 299 299 299 298 298 298 298 298 298 298 296 295 294 293 293 293 294 294 293 292 292 291 291 291 291 291 291 291 291 291 291 291 292 292 292 292 292 292 292 292 292 292 292 292 291 291 292 292 292 292 292 292 292 292 292 292 292 292 292 292 292 292 292 292 291 290 289 290 291 293 294 295 295 295 295
309 311 312 311 311 310 308 309 308 305 308 312 310 310 309 308 309 307 304 302 300 299 299 299 299 298 298 298 298 298 298 297 296 294 293 293 293 293 293 293 293 292 291 291 291 291 291 291 291 291 291 291 291 291 292 292 291 291 291 291 291 291 291 291 291 291 291 291 291 292 292 292 292 292 292 292 291 291 291 292 292 291 291 291 290 290 290 290 289 289 290 293 294 295 295 295 295
310 310 311 312 311 311 311 309 309 307 308 311 312 310 308 308 308 307 305 303 302 302 301 301 300 299 298 298 298 298 298 297 295 294 294 293 293 293 293 293 292 291 291 291 291 291 291 291 291 291 291 291 291 291 291 291 291 291 291 291 291 291 291 291 290 290 291 291 291 291 291 291 291 291 291 291 291 291 291 292 292 291 291 290 289 289 289 289 289 288 289 292 295 295 295 295 296
311 310 311 313 311 312 314 312 311 310 309 310 310 308 307 307 307 308 306 303 303 304 303 302 302 300 300 299 299 298 298 297 296 294 294 293 293 293 293 293 292 291 291 291 291 291 291 291 291 291 291 291 291 291 291 291 291 291 291 291 290 290 290 290 290 290 290 290 290 291 291 291 290 290 290 290 290 291 291 291 292 292 291 290 289 288 288 288 288 288 289 291 293 295 295 296 297
316 314 311 313 312 312 312 311 310 311 312 310 307 308 310 308 307 308 306 303 302 303 302 301 301 301 300 299 298 298 298 298 296 295 294 293 293 293 293 293 292 291 291 291 291 292 291 291 291 291 291 291 291 291 291 291 291 291 291 291 291 290 290 290 290 290 290 290 290 290 291 290 290 290 290 290 290 290 290 290 291 291 291 290 289 288 288 288 288 289 290 291 292 294 295 297 297
319 319 313 312 313 311 311 312 310 312 316 310 307 313 317 312 308 308 307 304 303 301 300 300 300 300 300 299 298 298 298 298 297 296 294 293 293 293 293 292 292 291 291 291 291 291 291 291 291 291 291 291 290 290 290 290 290 291 290 290 290 290 290 290 290 290 290 290 290 290 290 290 290 289 289 289 289 289 289 289 290 291 291 290 289 288 287 287 288 290 291 292 293 294 296 296 296
316 316 314 312 312 311 311 311 310 314 315 308 307 313 314 311 310 310 310 308 306 303 300 299 299 299 299 299 299 298 298 297 297 295 294 293 293 293 293 292 291 291 291 291 291 291 291 291 291 291 290 290 290 290 290 290 290 290 290 289 289 289 289 289 289 289 289 290 290 290 290 289 289 289 289 289 289 289 289 289 289 290 290 290 289 288 287 287 288 289 291 292 293 294 295 296 295
318 314 312 313 310 311 310 307 308 312 310 306 307 309 308 308 309 310 309 309 308 305 303 300 298 299 299 298 298 298 298 298 296 295 294 293 293 293 293 292 291 291 291 291 291 291 291 290 291 291 290 290 290 290 290 289 289 289 289 289 289 289 289 289 289 289 289 289 289 289 289 289 289 288 288 288 288 288 288 288 289 289 289 289 289 288 287 286 287 288 290 291 292 293 294 296 296
318 310 308 308 307 308 307 305 308 308 306 308 308 306 308 311 310 308 305 306 308 306 305 303 298 298 298 298 298 297 298 298 296 295 294 293 293 293 292 291 291 291 291 291 290 290 290 290 290 290 290 290 290 289 289 289 289 289 289 288 288 288 288 288 289 289 289 289 289 289 289 288 288 288 288 288 287 287 288 288 289 289 289 289 288 287 286 285 285 287 288 290 291 292 293 295 295
310 306 309 311 310 310 307 306 309 310 309 311 310 307 310 315 314 310 305 306 309 307 305 304 299 298 298 297 297 297 297 297 295 294 294 294 293 293 292 291 291 291 291 291 290 290 290 290 290 290 290 290 289 289 289 289 289 288 288 288 288 288 288 288 289 289 289 289 289 289 288 288 288 288 287 287 287 287 287 288 288 289 288 288 287 286 285 285 284 285 286 288 289 290 292 293 295
304 308 313 315 314 312 309 308 310 313 315 315 312 308 309 315 315 311 309 311 312 311 309 306 301 298 297 297 297 297 297 296 295 294 294 294 293 292 292 291 291 291 291 290 290 290 290 290 290 290 290 289 289 288 288 288 288 288 288 288 288 288 288 288 288 288 288 288 288 288 287 287 287 287 287 286 286 286 287 287 288 288 287 287 286 284 284 284 283 283 285 286 288 289 291 292 294
306 314 315 315 317 315 315 313 312 316 320 317 311 306 307 312 313 310 311 311 309 310 312 311 305 298 296 297 297 297 297 296 295 294 293 293 292 292 291 291 291 291 291 290 290 290 290 289 289 289 289 289 288 288 288 288 288 288 288 288 288 288 288 288 288 288 288 288 287 287 287 286 286 286 286 286 286 286 287 287 287 287 286 286 285 283 282 283 282 282 283 284 286 288 290 291 293
310 313 315 318 319 321 322 317 314 318 319 311 305 305 307 309 310 309 309 310 308 305 305 307 304 298 296 297 296 296 296 295 294 294 293 293 292 292 291 291 291 291 291 290 290 290 289 289 289 289 289 288 288 288 288 288 288 288 288 288 288 288 288 288 287 287 287 287 286 286 286 286 286 286 285 285 286 286 287 287 287 286 285 284 284 282 281 281 282 281 282 284 285 287 289 290 292
309 311 317 322 321 321 322 319 317 318 317 308 302 306 310 310 311 310 309 309 306 301 299 301 301 299 299 298 296 296 295 295 294 293 293 293 292 292 291 291 291 290 290 290 290 289 289 289 288 289 289 288 288 288 288 288 287 288 288 287 287 287 287 287 287 287 286 286 286 285 285 285 285 285 285 285 285 286 287 286 286 285 283 283 283 282 281 281 280 280 282 283 284 286 288 289 291
307 311 316 319 322 323 322 321 320 317 316 310 303 308 314 312 312 310 304 300 298 297 297 298 298 299 300 298 296 295 294 294 294 293 293 292 292 292 291 291 291 290 290 290 290 289 289 289 288 288 288 288 288 288 287 287 287 287 287 287 287 287 287 287 286 286 286 286 285 285 285 284 284 284 284 285 285 286 286 286 285 283 282 281 281 280 279 279 279 279 280 282 282 284 286 288 290
308 308 312 316 319 321 318 318 317 312 312 311 307 309 312 309 308 305 298 295 294 294 294 295 297 298 298 297 295 294 294 294 293 293 293 292 292 292 291 291 290 290 290 290 290 289 289 288 288 288 288 288 288 287 287 287 287 287 287 287 287 287 286 286 286 286 285 285 285 284 284 283 283 283 284 285 285 286 285 284 283 282 279 279 279 278 277 277 278 278 278 280 281 283 285 287 290
309 308 313 313 311 314 317 316 312 308 310 312 310 310 309 308 309 303 299 299 298 295 293 293 294 296 295 294 294 293 293 293 293 293 292 292 292 291 291 291 290 290 290 290 289 289 288 288 288 288 288 288 288 287 287 287 287 287 287 287 287 286 286 286 286 285 285 284 284 283 283 283 283 283 284 285 286 286 284 282 281 280 278 277 277 277 276 276 276 277 278 279 281 282 283 287 290
311 312 312 307 306 310 314 314 312 308 310 313 311 310 309 311 310 303 299 301 301 299 295 292 292 292 293 293 293 293 293 293 293 293 292 292 292 291 291 290 290 290 290 290 289 289 288 288 288 288 288 288 287 287 287 287 287 287 287 287 286 286 286 286 285 285 284 284 284 283 282 282 283 283 284 285 285 285 283 281 280 278 277 276 277 276 275 276 276 276 278 279 280 281 283 286 290
307 309 306 306 310 311 309 311 313 312 311 313 313 312 310 312 313 309 305 304 304 301 295 292 293 291 291 292 292 292 292 293 292 292 292 292 291 291 291 290 290 290 290 289 289 288 288 288 288 288 287 287 287 287 287 287 287 287 286 286 286 286 286 285 285 284 284 283 283 282 282 282 283 284 284 284 284 283 282 280 278 277 276 275 275 275 274 274 275 276 278 279 279 280 282 285 289
300 302 302 305 310 311 310 310 311 314 313 312 314 313 312 314 316 316 311 307 306 302 295 293 293 291 291 292 292 292 292 292 292 292 292 292 292 291 291 290 290 290 289 289 289 288 288 288 288 288 287 287 287 287 287 287 287 286 286 286 286 285 285 285 284 284 283 283 282 282 282 283 283 284 284 283 282 280 279 278 277 276 274 274 274 273 273 273 274 275 276 277 278 279 281 284 288
303 304 304 303 304 307 310 308 307 311 312 311 312 312 313 313 314 315 312 308 307 303 298 295 292 291 292 292 292 292 292 292 292 292 292 292 291 291 290 290 290 289 289 289 288 288 288 288 288 287 287 287 287 287 287 287 287 286 286 286 286 285 285 285 284 283 283 282 282 282 283 283 284 284 283 281 280 279 277 276 275 274 274 273 273 273 273 274 274 274 274 275 276 278 280 283 286
308 307 307 305 304 306 309 308 306 307 309 311 313 312 312 310 310 311 312 310 307 302 298 295 292 291 292 292 292 293 292 292 292 292 292 292 291 291 290 290 289 289 289 289 288 288 288 288 288 288 287 287 287 287 287 287 287 286 286 286 285 285 285 284 284 283 282 282 282 283 283 283 284 283 281 279 278 277 276 275 274 274 273 273 272 272 273 273 274 274 274 274 276 278 280 282 284
Wind_Speed
4 3 2 2 1 1 0 0 2 3 4 3 3 1 1 1 3 2 0 2 1 5 14 16 13 16 15 15 18 18 15 6 2 4 3 1 4 7 7 6 5 4 3 3 2 2 3 3 2 2 3 2 2 2 2 3 4 6 5 4 5 5 7 9 9 11 10 10 12 13 14 15 15 14 12 13 13 13 13 12 12 11 10 10 10 11 12 13 14 15 16 18 19 20 20 20 20
3 3 4 3 1 1 1 1 2 3 5 3 3 1 1 2 2 4 6 3 6 13 26 29 26 25 21 20 18 18 17 12 10 10 7 2 1 5 8 7 5 3 3 3 4 5 6 5 3 1 3 4 3 4 4 3 4 5 5 6 6 6 7 7 9 12 11 10 11 13 14 14 15 16 13 13 14 14 14 14 15 15 14 12 12 12 12 13 14 15 16 17 19 20 21 21 20
3 4 4 2 1 1 1 3 2 2 4 2 4 3 1 0 3 6 7 4 17 25 24 21 19 14 11 13 12 10 9 10 11 8 7 4 1 5 8 7 6 4 3 4 6 7 8 7 5 2 3 5 5 5 6 4 4 5 5 6 6 6 7 7 8 11 12 11 10 11 13 15 16 16 14 14 14 14 15 16 17 16 16 16 15 14 14 14 14 15 16 17 19 21 21 21 21
3 4 2 3 3 2 3 4 2 4 3 3 3 4 2 3 6 7 2 5 16 20 14 13 12 11 12 11 8 8 8 8 8 5 6 8 6 6 6 6 6 4 4 5 6 7 7 7 6 4 2 4 6 7 7 7 7 6 5 6 6 6 7 8 9 10 12 13 12 11 12 14 15 15 14 14 15 15 16 18 18 17 17 17 17 17 16 16 15 16 17 17 19 20 22 22 22
3 2 1 3 3 1 3 3 2 4 2 4 2 4 4 5 7 4 3 6 9 13 12 13 7 9 16 12 5 4 4 7 7 8 10 9 6 5 4 5 5 5 5 4 5 5 6 6 6 5 3 2 4 6 8 8 9 9 8 8 8 8 9 10 10 10 11 12 13 13 13 14 14 15 15 16 16 15 17 18 19 19 19 19 19 18 18 17 18 18 18 18 19 19 21 23 23
2 3 2 3 3 2 3 2 2 2 4 5 3 4 4 6 7 5 8 10 10 13 14 14 12 13 15 13 12 7 5 7 9 10 11 8 4 3 3 4 6 6 4 4 5 5 6 6 7 7 6 5 4 3 5 7 9 9 9 10 9 10 10 11 12 12 12 12 12 12 14 15 16 16 17 17 18 17 16 17 19 20 20 20 20 19 20 20 19 19 19 19 19 20 20 22 23
3 3 3 5 3 2 3 3 4 2 2 5 3 4 4 7 9 10 9 7 10 11 14 18 22 19 9 6 11 11 10 9 10 10 8 6 3 1 2 3 4 4 5 6 6 6 6 6 7 7 7 7 7 6 5 5 7 9 10 10 11 11 11 12 13 14 14 14 13 13 13 15 16 18 18 18 19 19 18 17 18 20 21 20 19 20 22 22 21 20 20 20 21 21 21 22 23
3 3 2 4 2 4 4 3 3 2 1 3 2 3 3 7 12 9 3 3 5 6 15 21 17 11 4 6 7 10 13 11 11 9 7 5 1 2 3 3 4 5 8 8 9 9 9 9 8 8 8 8 8 8 8 7 6 6 8 10 11 12 12 13 13 14 15 15 15 14 14 15 16 17 18 19 20 20 20 19 18 19 21 21 21 22 23 23 22 22 22 21 22 22 22 22 23
2 1 1 3 2 3 3 2 0 2 2 2 1 1 2 7 10 6 4 5 7 9 13 11 2 4 8 12 11 11 14 12 10 7 5 3 3 3 2 2 4 6 9 10 11 10 11 11 11 10 10 10 9 10 10 9 9 8 7 7 8 11 13 14 15 15 15 16 16 16 16 17 16 16 16 17 19 20 21 22 21 20 20 21 23 24 25 23 22 23 23 23 23 23 23 23 23
1 1 2 3 3 4 3 1 0 1 2 3 2 1 2 7 6 8 8 6 8 11 8 5 3 13 16 12 11 12 13 12 9 6 4 3 2 1 1 2 4 7 8 9 10 10 10 11 11 11 11 11 11 10 10 10 10 10 10 9 8 8 9 12 14 16 17 17 18 18 19 19 18 17 17 17 18 20 21 22 23 23 22 22 23 24 25 25 24 23 23 24 24 24 25 24 24
0 2 3 4 4 3 2 3 2 2 3 4 3 0 3 8 11 11 11 9 8 11 10 6 10 20 16 7 9 12 13 11 8 5 3 2 2 1 1 3 5 6 7 8 8 8 9 9 10 11 11 12 12 11 11 10 10 10 11 11 11 11 10 10 10 13 16 18 19 20 20 20 21 20 20 21 20 20 21 22 22 23 24 24 24 23 23 25 26 25 24 25 25 25 26 26 26
0 1 3 4 3 3 4 4 4 3 5 4 1 3 4 9 12 9 10 11 9 10 8 5 13 20 10 4 9 12 13 10 8 5 4 4 3 1 1 3 5 6 6 7 6 6 8 8 10 11 11 12 12 12 12 12 12 12 12 12 12 12 13 13 12 11 12 14 17 20 21 22 22 22 22 23 23 23 22 22 22 23 24 25 26 25 23 23 26 27 27 27 27 27 27 27 28
1 2 5 3 2 3 4 5 4 1 4 2 2 2 3 5 9 14 14 11 8 8 3 8 20 16 5 6 12 13 13 10 7 6 5 4 3 1 1 3 4 4 5 4 4 5 7 8 9 11 11 12 12 13 14 15 16 16 15 14 14 14 14 14 14 14 14 13 14 16 19 21 22 23 23 23 24 24 24 24 24 24 24 24 25 26 25 24 25 27 29 30 30 29 28 29 29
3 2 4 3 1 3 5 3 2 2 1 4 2 2 5 4 7 15 16 9 4 5 5 15 21 9 6 9 10 15 14 10 9 7 6 4 3 1 2 3 3 2 3 3 3 5 6 9 10 11 11 12 13 14 15 16 17 18 17 17 17 17 16 16 16 16 16 16 16 16 16 18 20 22 23 24 24 24 25 26 26 26 26 25 24 25 26 27 28 28 29 30 32 32 30 29 29
4 2 5 4 3 2 3 2 2 5 4 4 2 6 9 7 6 9 8 6 5 9 12 17 16 3 8 12 11 19 16 12 11 7 7 5 4 3 3 3 1 0 2 3 4 5 7 9 10 11 12 13 15 16 17 17 18 18 18 17 17 17 17 18 18 18 18 18 18 18 18 18 18 20 22 24 25 25 25 26 27 28 28 28 26 26 27 28 29 29 29 29 31 31 31 30 29
4 3 5 3 2 2 2 2 3 4 4 3 6 9 9 6 7 6 2 6 9 13 12 12 12 5 11 16 14 21 17 13 11 8 9 7 6 5 3 3 0 0 2 3 5 7 8 10 11 12 13 14 16 18 19 19 19 19 19 19 19 18 18 18 18 18 19 20 20 20 20 20 20 20 20 22 24 25 25 25 26 27 28 29 29 28 28 28 28 28 29 30 30 30 31 30 30
3 3 5 3 2 3 3 4 4 4 5 4 8 8 5 3 4 5 4 10 13 13 11 9 10 7 13 17 15 20 16 13 12 10 11 9 7 5 4 3 1 1 3 4 6 8 9 10 11 12 13 16 18 18 19 19 20 21 22 22 21 21 20 19 19 19 19 20 21 21 22 22 21 21 21 22 22 23 24 25 25 25 26 28 28 29 29 29 27 25 27 29 29 30 30 29 30
3 3 4 2 3 3 5 7 7 5 4 6 7 8 8 5 7 11 8 8 13 12 10 10 10 11 16 17 16 18 15 14 14 12 13 10 8 7 5 4 2 1 3 5 6 8 9 10 11 13 16 18 19 19 20 20 22 22 23 23 23 23 22 22 21 21 20 20 21 21 22 23 23 23 23 23 24 23 24 24 26 26 26 26 27 28 28 29 29 26 26 28 29 30 30 30 32
3 3 4 2 4 4 3 6 9 5 5 8 6 9 11 9 13 16 7 5 12 11 9 11 13 16 17 18 17 16 15 15 14 13 13 11 9 8 6 4 2 2 3 4 6 7 8 9 12 15 17 19 19 20 21 22 22 23 23 23 23 23 23 23 23 23 23 22 22 21 21 22 23 24 24 24 25 25 26 25 26 27 28 28 27 28 28 29 29 29 28 28 29 30 32 32 33
1 4 3 4 6 4 4 7 12 8 8 9 8 10 9 12 17 15 10 8 7 7 12 13 15 20 19 19 18 16 16 14 13 12 11 10 9 7 5 4 2 2 3 4 5 6 7 9 12 15 17 18 19 20 21 22 23 23 24 23 23 23 23 23 23 23 24 24 24 23 23 22 22 23 25 25 26 27 27 28 28 27 28 29 29 29 29 29 29 30 30 30 30 31 33 34 35
1 3 3 5 6 4 6 10 10 9 10 11 10 10 8 15 17 14 15 9 4 12 21 18 17 25 23 21 19 16 16 14 13 11 10 9 7 6 4 2 1 2 3 5 6 8 10 12 14 17 18 19 20 21 21 23 23 23 23 23 23 23 23 23 23 24 24 25 25 26 26 26 25 24 24 25 26 27 28 29 30 30 30 29 30 31 31 30 30 30 31 31 31 31 33 36 37
2 0 2 6 8 4 7 11 9 10 11 9 9 8 9 14 14 17 21 11 6 16 25 19 17 24 23 22 20 17 16 14 13 11 9 8 6 5 3 2 0 2 4 6 8 10 12 14 16 17 19 19 20 21 22 22 23 23 23 23 23 23 23 23 24 24 24 25 26 27 28 28 28 28 27 26 26 27 28 29 30 31 32 31 30 31 32 32 31 31 31 31 31 32 32 34 37
2 1 1 5 7 4 9 12 9 11 12 11 9 8 11 12 8 17 24 15 7 11 20 18 16 21 21 20 20 18 16 14 13 11 9 8 6 5 4 3 1 2 3 6 8 11 13 14 16 17 18 19 20 21 21 22 23 23 24 24 24 24 23 23 24 24 24 25 26 27 29 30 30 30 30 29 28 27 28 29 30 31 32 32 32 32 32 33 32 31 31 31 31 32 32 33 35
2 2 2 3 5 4 9 10 10 12 12 12 10 9 12 11 6 13 22 18 10 8 17 18 19 23 21 20 19 18 17 15 14 12 10 9 8 6 4 3 2 2 3 6 8 10 12 14 15 16 18 18 20 20 21 22 23 23 24 24 24 24 24 24 24 24 24 24 25 26 27 29 30 31 31 31 31 30 29 29 29 30 31 32 32 33 33 33 34 33 32 33 32 32 32 33 33
3 2 3 2 3 3 6 8 9 11 11 10 9 7 8 11 9 11 18 18 12 14 19 20 23 24 22 21 20 19 18 16 15 13 12 10 8 7 5 3 2 2 4 6 8 10 11 13 15 16 17 18 19 20 20 21 22 22 23 24 24 25 26 26 25 25 25 25 25 25 25 27 28 30 32 32 32 32 31 31 30 30 30 31 31 32 33 34 35 34 34 34 34 34 33 33 32
1 2 5 3 3 3 4 8 10 12 11 10 8 2 2 8 7 7 16 18 16 20 22 24 26 25 24 22 20 20 19 17 15 14 12 10 8 7 5 3 1 2 4 6 8 9 11 12 13 15 16 17 18 18 19 19 20 21 22 23 24 25 25 26 27 27 27 27 26 26 26 27 28 29 30 32 33 34 33 33 32 31 31 30 31 32 32 33 35 35 35 35 35 36 35 35 34
4 4 7 7 8 7 5 8 11 12 10 10 7 1 0 8 4 5 14 20 22 24 25 25 25 25 25 22 21 20 18 17 15 13 11 9 8 6 4 2 1 3 4 6 7 8 10 11 12 14 15 15 16 17 18 19 20 21 22 23 23 24 25 26 27 28 28 28 28 28 27 28 28 29 30 31 33 35 36 35 35 34 33 31 31 32 33 33 35 35 36 36 36 36 37 37 36
7 7 8 8 8 9 6 7 10 11 7 9 7 1 0 4 3 8 17 24 26 27 27 27 26 25 24 23 22 19 18 16 14 13 11 9 8 6 3 2 2 3 4 5 6 8 9 10 12 14 14 15 16 17 18 19 20 21 22 23 24 25 26 27 28 29 30 31 31 30 30 30 30 31 31 32 33 35 37 38 38 37 35 34 32 33 34 34 35 36 36 36 36 37 38 38 38
6 4 6 7 9 8 4 3 7 10 4 7 5 2 3 5 8 9 17 27 28 27 28 28 28 26 25 24 22 20 18 16 15 13 11 10 8 6 4 2 2 3 4 5 7 8 10 11 13 14 15 15 16 17 18 19 20 22 23 25 26 27 27 28 28 29 30 31 33 33 33 33 34 34 34 35 35 37 38 39 39 39 38 36 34 34 35 35 36 36 37 37 37 37 38 39 39
3 3 3 4 8 6 3 3 4 7 4 8 6 4 6 8 13 10 17 29 30 29 30 30 30 28 27 25 23 21 19 17 16 14 12 11 8 6 4 2 1 2 4 6 7 9 10 12 13 14 15 16 16 17 18 20 21 22 24 26 27 28 29 29 29 29 30 31 32 33 34 35 35 35 35 36 37 38 39 40 41 40 40 39 37 35 35 36 36 37 37 38 39 38 38 39 39
1 1 2 3 4 4 5 3 5 5 5 10 7 4 9 8 13 12 20 30 32 31 32 32 32 30 29 27 25 23 21 18 17 15 13 11 8 6 3 2 1 3 5 6 8 9 10 12 13 14 15 16 17 18 19 20 22 23 26 27 28 29 30 30 31 31 31 32 33 33 34 35 35 35 35 37 38 39 40 41 42 41 41 41 39 37 35 36 36 37 37 38 39 39 39 39 38
3 1 3 3 0 5 9 4 7 5 3 9 7 3 10 9 11 15 24 30 33 32 32 33 33 33 31 29 27 25 22 19 17 16 14 11 8 5 3 1 1 3 5 7 8 9 11 12 14 15 16 17 17 19 20 21 23 25 27 29 30 30 31 32 32 33 33 33 34 33 34 35 35 36 37 38 40 41 42 43 42 42 41 41 41 39 37 36 36 37 37 37 39 40 40 40 40
4 1 3 3 1 3 7 4 5 4 2 5 6 4 8 7 6 12 25 31 33 30 28 32 34 34 34 31 30 27 24 22 20 18 15 12 8 6 4 3 3 5 6 7 9 10 12 13 14 16 17 18 19 20 21 22 24 26 29 30 30 30 31 32 33 34 34 34 34 34 35 35 36 37 38 40 42 43 45 45 45 44 42 41 41 41 40 37 36 37 37 36 37 40 41 42 42
4 2 1 4 3 2 4 6 3 1 2 5 6 6 12 11 2 9 24 32 32 28 28 33 34 35 34 33 31 29 28 26 24 22 18 14 10 8 6 4 4 6 7 8 10 11 12 14 15 17 18 19 20 21 22 23 26 28 29 30 30 30 30 32 34 35 35 35 35 35 35 36 36 37 39 41 43 45 46 47 48 47 45 43 42 42 41 39 37 37 38 37 36 38 41 42 42
3 3 2 4 3 4 5 6 3 1 2 5 4 7 15 16 7 10 22 29 31 31 31 33 33 34 34 34 33 31 30 29 27 23 20 16 11 10 8 6 6 7 8 9 10 11 13 14 16 17 19 20 21 21 22 24 27 28 29 29 29 30 31 33 35 36 36 36 35 35 35 35 36 37 38 40 42 44 46 47 48 48 47 46 44 43 42 40 38 37 38 38 37 37 40 42 42
4 4 4 4 5 6 6 7 4 1 3 7 7 9 14 17 12 10 19 28 31 31 30 28 28 31 33 34 35 34 32 31 27 24 20 16 13 11 10 8 8 7 8 9 10 11 13 14 16 18 19 20 21 22 24 27 29 30 30 31 31 31 33 34 35 36 36 36 35 34 34 35 36 37 38 40 42 44 46 47 48 48 47 46 45 44 42 41 38 36 37 39 39 39 39 40 42
3 2 4 5 5 7 7 5 4 2 3 8 9 10 13 17 16 13 18 25 25 24 25 25 27 31 34 36 37 36 35 31 27 25 22 18 15 13 12 10 8 7 7 8 9 11 13 15 17 19 20 21 22 24 28 30 30 31 32 33 33 34 34 35 35 35 35 35 33 33 33 34 36 38 38 40 43 45 46 48 49 49 47 45 45 44 42 41 40 37 36 37 39 40 40 39 40
2 2 4 6 5 8 9 4 4 1 3 6 6 7 12 15 16 15 13 15 19 25 26 28 30 32 35 38 39 38 35 31 28 27 24 20 17 14 13 11 7 7 7 8 9 11 13 16 18 19 20 21 23 26 28 29 29 31 33 33 34 34 34 35 35 35 35 34 33 33 34 35 36 38 40 42 45 47 48 49 49 49 47 45 44 44 41 40 40 37 35 36 38 39 41 40 38
2 2 1 5 4 4 8 5 5 2 3 5 7 8 12 13 17 17 13 15 21 31 36 36 35 35 37 38 39 39 36 33 33 31 27 22 18 16 14 11 8 8 7 8 9 12 14 16 18 19 21 22 25 27 28 28 29 30 32 33 34 35 35 35 36 36 36 36 36 37 38 38 39 40 41 43 45 46 48 49 49 48 47 45 43 42 40 37 36 35 34 35 37 39 41 40 38
3 3 2 5 4 2 5 4 5 4 2 5 9 10 10 10 15 19 15 19 24 30 37 38 37 37 40 41 41 42 41 38 36 33 28 23 19 17 15 11 8 8 7 8 10 13 15 16 19 20 22 24 25 27 28 28 29 30 32 32 33 34 35 36 37 37 37 38 38 39 41 42 43 44 44 45 46 47 47 48 49 49 47 45 43 42 39 35 31 31 33 35 37 39 42 42 39
4 5 6 6 6 5 6 4 6 6 4 4 8 10 8 7 13 15 8 9 17 22 27 30 34 37 36 36 38 41 42 41 39 35 30 25 21 18 15 12 9 8 7 8 10 13 15 17 19 21 23 24 26 27 28 29 30 31 32 33 33 34 35 36 37 39 39 40 40 40 41 43 45 46 47 48 49 50 50 49 49 49 47 44 43 42 40 34 29 28 31 35 37 39 42 43 41
5 5 9 9 8 8 6 5 6 5 4 4 6 7 7 2 6 11 6 3 9 12 15 23 32 33 31 33 36 38 40 40 38 35 31 26 22 19 16 12 10 9 8 9 11 13 15 17 19 21 23 24 26 27 28 29 30 32 33 34 35 36 37 37 37 39 41 41 42 42 42 43 45 46 47 48 50 51 52 50 49 48 47 45 42 41 40 37 33 30 28 31 34 37 41 44 44
3 4 6 7 5 4 4 4 4 2 3 2 4 2 9 3 3 10 8 7 10 9 10 18 26 29 32 36 37 38 39 39 37 33 30 27 23 20 16 13 10 9 8 9 10 13 15 17 19 21 23 24 25 27 27 29 30 31 32 33 35 36 37 38 37 39 41 42 43 43 44 44 45 47 47 48 49 51 52 51 50 49 48 45 43 41 40 40 38 35 32 31 31 32 36 42 45
3 4 5 5 2 1 1 2 0 3 3 3 3 4 8 8 5 8 7 8 12 12 12 14 20 27 33 37 36 37 40 40 38 34 30 28 23 19 16 13 10 8 8 8 10 12 15 17 19 20 22 24 25 26 27 28 30 31 32 33 34 35 36 38 39 40 40 42 43 43 44 45 45 47 48 48 49 50 51 51 51 49 48 46 44 42 39 40 41 40 38 37 35 32 32 37 43
5 4 5 4 3 2 2 2 2 2 3 5 4 6 5 9 5 3 2 6 11 14 16 14 16 27 33 34 34 35 39 40 38 35 32 28 23 20 16 13 10 8 7 8 10 12 15 17 19 20 22 24 25 26 27 28 30 31 32 34 35 35 36 38 39 40 41 42 44 44 44 45 46 47 48 49 50 50 51 51 51 50 48 46 46 44 40 39 41 43 42 41 39 36 33 33 38
3 5 5 4 4 3 3 2 0 2 3 9 6 8 4 8 4 2 2 4 9 12 13 12 15 26 31 30 32 35 38 39 38 35 31 27 23 20 16 13 9 7 7 9 10 13 15 17 19 20 21 23 25 25 27 28 29 31 32 33 35 36 37 39 40 41 42 43 45 46 46 46 47 48 48 50 51 51 51 51 51 50 47 45 45 46 42 38 39 42 43 43 42 40 38 36 36
4 6 4 5 4 4 4 2 3 3 4 10 7 12 8 6 3 6 4 5 8 8 9 8 11 21 26 28 32 36 38 39 38 34 30 26 23 19 16 12 9 7 7 9 11 13 15 17 19 21 21 23 24 25 27 28 29 31 32 33 35 36 38 39 41 42 43 44 46 47 48 48 49 49 49 50 51 51 50 50 50 50 48 44 44 45 43 39 38 40 42 43 44 43 41 39 38
5 4 4 4 4 3 4 4 4 1 6 6 3 9 9 8 6 4 5 7 6 6 7 7 9 16 24 29 33 37 39 40 38 33 30 26 23 19 16 12 8 7 7 9 11 13 15 17 19 21 21 22 24 26 27 29 30 31 32 34 35 36 38 39 41 42 43 44 46 48 49 50 50 50 50 51 51 50 50 50 50 50 49 45 43 45 44 41 39 39 41 42 43 44 43 39 38
5 4 4 3 4 4 4 3 1 3 7 3 2 4 5 12 11 8 10 11 9 8 9 12 11 14 22 30 33 36 39 40 38 34 31 27 23 19 15 11 8 7 7 9 11 13 15 17 19 21 22 23 25 26 28 29 30 31 32 34 36 37 38 39 40 42 43 44 46 48 49 50 51 51 51 52 52 50 50 50 50 51 50 47 44 45 44 41 39 37 37 38 39 42 44 41 38
5 4 4 3 1 1 4 4 2 5 6 2 4 4 4 10 8 11 16 15 12 10 14 18 16 15 21 28 33 36 38 40 38 35 31 27 23 19 14 10 7 7 8 9 11 13 15 17 19 21 22 23 25 27 28 30 31 32 33 34 36 37 38 39 40 41 43 44 46 47 48 49 50 51 51 52 52 51 50 50 50 51 51 48 45 45 43 39 35 33 33 34 37 41 43 41 39
4 4 4 5 5 4 4 4 4 5 7 4 4 3 4 5 3 7 10 9 8 9 14 18 17 17 19 24 31 35 38 39 37 34 31 27 23 18 13 9 7 7 8 10 12 14 16 18 19 21 23 24 26 28 29 30 31 32 33 34 35 36 38 39 40 41 42 44 45 47 48 48 49 50 51 52 52 51 51 51 51 51 51 49 46 45 44 39 34 33 37 40 41 42 41 40 39
1 2 4 2 4 5 2 3 4 1 6 6 3 4 6 4 3 5 2 5 5 7 9 9 11 15 17 23 30 34 38 39 37 35 31 27 22 17 13 9 7 7 8 10 12 14 16 18 20 22 24 25 27 28 29 31 32 33 33 34 35 36 37 39 40 42 42 43 45 46 47 48 48 49 50 51 52 52 52 52 51 51 51 49 47 46 45 43 37 38 43 45 45 42 40 40 39
2 2 3 4 4 5 2 4 2 4 2 6 3 6 8 6 5 4 3 3 5 5 5 4 9 14 19 25 30 35 39 40 38 36 31 26 21 16 12 9 8 8 9 11 12 14 16 18 21 22 24 26 27 28 30 31 32 33 34 35 36 37 38 40 41 42 43 43 45 46 47 48 48 49 50 51 52 52 52 51 51 52 51 49 48 46 45 44 42 43 45 44 43 41 40 41 38
4 3 5 3 2 4 3 1 3 2 3 6 4 9 13 9 6 1 3 3 9 6 4 4 8 14 20 25 30 35 39 40 37 34 29 25 21 16 12 9 9 9 10 11 12 13 16 18 21 23 25 26 27 28 30 31 32 34 35 36 37 38 39 41 42 43 44 44 45 46 47 47 48 48 49 51 52 53 52 50 49 51 51 49 48 45 44 43 41 41 41 40 40 39 41 41 37
5 3 2 2 2 1 2 2 2 1 3 6 5 8 13 10 5 3 3 8 10 8 5 5 8 14 20 25 30 34 37 38 37 33 29 26 21 16 13 10 9 9 10 11 11 13 16 18 21 23 25 26 27 29 30 31 33 34 36 37 38 39 40 41 43 44 45 45 46 46 46 47 48 48 49 51 51 51 51 50 49 50 50 48 46 43 42 39 36 34 33 35 37 36 39 41 37
3 0 1 1 3 3 3 3 3 3 3 7 5 8 13 9 5 6 8 10 10 8 8 9 11 18 24 28 31 35 38 40 38 34 30 26 21 16 13 11 10 9 9 10 11 13 16 18 21 22 24 25 27 28 30 32 33 35 37 38 39 39 40 42 43 44 45 45 46 46 46 47 48 49 49 50 50 50 50 49 49 48 47 46 43 40 37 35 33 33 32 34 36 35 37 40 37
3 2 2 2 1 1 1 2 2 4 4 5 3 7 15 7 5 7 8 9 11 11 11 10 13 22 28 30 34 38 41 41 39 35 30 25 21 16 13 12 10 9 8 9 11 14 16 18 20 22 24 25 27 28 30 32 34 36 38 39 40 40 41 43 44 45 46 45 45 46 46 48 49 49 49 48 49 50 49 48 48 47 47 46 41 37 35 34 34 34 36 39 39 36 36 38 37
6 6 7 7 6 3 1 4 4 3 4 5 3 6 17 8 4 5 6 7 9 11 11 10 15 25 29 31 36 39 42 43 39 34 29 25 21 16 14 12 10 9 8 9 11 13 15 17 20 21 23 24 26 28 31 33 35 37 38 39 40 41 42 44 45 45 46 45 46 46 47 48 49 49 48 47 49 49 48 47 47 48 48 45 39 36 35 34 34 36 40 40 35 32 32 34 37
Wind_Direction
77 109 135 140 184 161 246 179 84 5 64 81 326 23 152 204 184 160 258 295 30 51 76 87 86 92 98 102 106 88 65 59 79 97 137 175 5 353 355 356 358 5 357 350 330 335 337 14 78 111 128 145 166 208 266 290 266 266 266 257 273 292 302 302 302 300 302 308 301 296 294 293 292 289 285 288 292 292 288 285 287 289 288 282 280 282 280 281 279 277 275 273 272 272 269 266 265
61 114 133 128 281 238 250 48 85 355 52 73 297 176 276 337 120 171 205 201 116 101 89 88 84 86 95 98 94 77 58 54 76 92 95 100 261 349 3 1 353 353 344 328 312 319 323 332 343 217 188 184 190 219 251 293 276 272 269 262 269 265 278 288 291 291 294 303 302 299 296 293 287 284 286 288 290 291 292 295 296 298 298 292 288 288 281 279 282 283 281 277 274 273 272 268 266
65 116 140 150 78 124 134 42 87 72 72 114 269 260 326 49 192 205 208 129 113 112 97 88 80 73 87 81 61 62 67 64 78 90 67 52 62 8 7 5 3 0 336 315 316 320 322 331 337 308 231 218 213 220 238 259 268 274 270 268 273 268 272 272 279 283 283 284 287 295 297 295 289 289 295 292 286 284 288 296 298 298 299 297 295 293 287 282 282 285 284 281 275 272 272 270 267
95 108 128 176 128 91 64 47 123 116 110 180 248 269 264 181 208 220 207 80 124 128 109 94 74 58 75 76 61 68 74 66 66 87 66 51 57 31 8 4 358 345 324 317 324 322 326 332 334 332 269 236 228 226 234 245 249 253 258 258 256 258 265 268 275 276 276 277 275 277 282 288 291 294 296 290 284 283 286 290 292 292 293 293 292 292 289 286 285 285 284 282 277 273 270 269 268
113 111 106 173 152 101 87 76 110 100 167 183 165 255 251 200 210 223 60 62 140 152 131 112 95 79 74 65 67 75 78 89 83 91 84 69 64 39 5 344 324 307 309 323 333 327 332 332 332 336 327 290 245 235 236 241 246 247 249 248 250 253 255 259 267 273 275 280 278 275 274 274 279 281 279 275 270 272 282 285 287 289 290 290 290 289 289 288 289 287 283 280 277 275 271 269 268
130 140 107 132 127 128 118 105 124 105 215 167 145 242 237 208 208 153 93 75 106 131 131 117 120 110 83 70 70 76 111 113 104 98 93 85 75 40 349 318 304 296 316 343 343 340 344 340 339 342 344 343 324 290 260 251 251 252 251 249 252 253 256 258 261 266 270 279 281 281 280 271 271 273 270 268 265 264 272 280 285 288 289 290 291 289 291 292 290 287 283 279 276 275 271 269 267
148 157 116 119 93 63 109 128 163 171 208 169 160 206 214 216 191 141 109 86 92 109 121 118 119 108 88 103 75 78 112 121 112 105 105 102 96 36 327 326 318 329 15 20 17 20 18 11 6 4 4 4 0 351 331 300 276 266 264 259 259 256 258 260 261 266 268 272 274 278 284 277 274 276 271 271 271 268 270 276 280 284 286 287 288 287 291 294 291 286 283 279 277 275 270 267 265
148 171 142 127 46 32 96 112 177 177 171 217 194 185 206 200 180 146 106 108 104 103 124 124 115 91 81 147 110 98 114 118 115 115 122 120 147 279 308 333 357 36 53 55 56 55 54 51 48 41 33 29 26 20 11 357 333 303 284 273 270 267 265 263 263 267 268 268 269 273 280 280 280 280 275 274 275 271 272 275 274 276 280 284 285 284 287 290 290 288 283 279 275 274 272 268 265
128 162 159 110 68 49 63 62 149 204 261 272 237 216 148 176 180 138 81 78 114 128 140 147 91 95 120 117 116 121 119 120 124 130 140 164 239 262 290 351 39 68 74 73 71 67 67 63 60 57 53 47 41 35 29 22 13 1 341 313 290 280 275 272 271 272 271 270 271 273 275 277 280 281 277 277 279 275 273 275 274 270 272 278 282 285 286 284 285 285 283 278 273 271 272 270 267
99 78 140 92 79 66 50 39 257 221 254 280 272 243 130 169 163 118 112 97 126 131 145 183 132 132 128 114 122 132 131 133 144 157 178 214 231 243 316 53 74 87 86 80 77 70 68 64 60 56 51 47 42 38 31 27 22 15 9 0 346 323 300 286 280 277 276 275 273 272 273 274 277 277 276 276 278 278 277 277 278 273 269 270 274 281 284 284 282 280 280 278 274 271 272 271 268
72 50 105 83 78 106 162 198 250 251 272 306 309 96 125 147 121 102 114 118 135 129 130 136 125 130 122 113 138 143 145 150 167 182 189 187 194 246 344 83 98 96 91 83 77 71 67 59 54 46 41 36 30 28 23 19 13 9 4 359 357 351 342 325 305 290 282 279 277 276 276 275 275 274 274 275 275 276 277 278 278 274 271 270 271 273 277 284 285 280 275 274 273 273 275 274 271
219 23 78 88 113 169 181 166 201 255 313 335 48 92 114 135 120 114 121 122 142 141 146 165 147 139 115 116 148 151 158 167 182 185 178 189 226 268 40 105 106 100 93 83 75 67 58 47 41 34 28 25 21 18 14 11 5 359 353 347 345 342 341 338 332 320 304 292 284 281 279 277 276 275 274 275 275 275 275 275 276 275 272 271 272 272 271 276 282 282 275 270 270 272 274 274 273
103 148 82 92 142 145 141 143 186 255 334 290 183 91 102 135 127 136 131 121 150 157 191 182 156 143 111 147 153 162 171 180 183 178 188 212 248 271 125 123 108 104 91 78 66 51 39 31 26 22 20 18 15 11 6 3 359 354 349 342 337 332 328 326 326 325 321 314 302 293 286 281 278 277 276 275 274 273 272 273 272 273 273 271 271 271 270 268 272 277 277 271 267 267 270 271 272
90 153 94 110 86 112 137 133 182 147 239 250 222 105 103 109 132 143 132 115 157 145 137 159 157 142 133 148 162 176 177 183 183 184 199 221 241 193 150 135 112 104 72 53 36 29 22 17 12 11 9 6 3 360 356 353 350 348 345 341 336 331 324 320 316 315 314 313 311 306 299 291 284 279 277 276 275 273 271 271 270 271 271 271 271 272 271 268 267 268 272 273 268 266 266 267 269
90 122 94 107 39 61 150 148 157 141 195 239 171 131 109 95 137 155 136 130 162 140 139 158 165 171 171 170 181 181 178 183 185 190 196 202 203 180 173 167 146 105 26 16 14 10 11 9 3 0 358 356 353 350 346 343 341 340 341 339 336 332 326 320 314 310 307 305 304 302 301 299 294 287 281 278 277 277 275 272 270 269 269 269 269 270 270 270 270 266 266 271 271 267 264 264 264
101 112 80 82 64 104 156 153 132 133 221 221 146 137 103 89 148 156 149 153 150 148 158 174 185 229 189 179 173 174 176 180 184 187 186 189 189 186 186 183 221 326 7 7 7 4 4 0 356 356 353 353 349 345 343 340 340 339 340 337 335 332 327 323 316 311 306 302 299 296 295 294 294 293 289 283 278 278 278 277 274 271 269 268 266 266 267 268 271 267 263 266 269 267 263 262 261
118 101 64 74 123 148 171 169 167 167 228 216 165 165 111 95 159 142 145 152 144 153 169 180 197 204 176 171 163 168 173 176 181 180 185 196 196 198 199 196 244 294 356 357 3 1 357 354 353 354 353 351 348 347 345 343 343 340 339 337 336 333 329 325 320 316 311 306 302 298 296 293 291 290 291 290 286 283 280 280 279 277 273 270 268 266 264 264 266 265 262 262 265 265 262 262 262
112 112 77 112 157 160 173 182 193 164 188 200 186 187 159 152 167 147 131 126 128 137 151 154 170 169 163 164 160 167 173 178 185 189 199 212 215 219 223 225 248 276 340 352 356 355 352 353 356 356 354 353 351 350 348 346 344 341 340 338 337 335 332 329 325 322 319 315 310 305 302 300 298 295 292 292 291 290 287 284 282 281 279 276 274 270 266 263 262 260 258 260 262 262 262 264 264
93 106 85 189 197 188 198 186 184 165 178 189 171 176 181 181 168 158 150 130 130 121 127 141 149 151 158 163 165 173 178 183 190 200 212 219 223 227 230 239 266 288 318 338 345 345 347 352 356 357 357 357 354 352 350 347 345 343 342 340 338 337 334 333 330 327 325 323 320 315 311 307 306 303 301 297 293 291 290 289 286 283 281 280 278 274 270 267 264 261 258 259 260 259 260 263 266
98 96 84 229 210 191 221 187 181 188 188 185 167 166 183 179 168 168 167 164 167 160 156 158 161 160 163 168 172 179 180 189 197 204 214 215 218 221 220 228 253 287 315 329 338 341 344 354 357 360 -0 359 356 353 351 348 347 345 342 341 339 338 336 335 333 331 330 329 328 324 321 317 313 310 308 305 301 295 290 288 288 286 283 281 280 278 274 271 268 266 262 261 261 260 260 263 266
338 114 137 207 182 165 200 185 185 197 192 195 174 151 167 177 179 179 161 154 242 216 190 187 189 178 172 173 175 180 186 197 201 201 205 203 205 202 201 204 238 319 341 341 344 348 352 359 1 1 0 359 357 354 352 349 348 345 342 342 341 340 339 337 336 334 333 332 332 330 328 326 323 319 315 312 309 305 300 294 290 289 287 285 283 281 280 277 274 272 269 267 267 266 265 263 263
348 126 148 167 156 160 193 179 182 193 193 199 173 152 170 175 189 189 172 171 234 223 207 200 200 188 178 177 177 181 192 199 197 194 194 192 193 186 183 182 246 332 344 346 350 354 359 2 1 1 358 356 355 353 353 351 347 345 343 343 343 343 342 341 339 337 336 335 334 333 331 330 328 326 324 321 317 313 310 305 299 294 292 290 287 285 283 282 280 277 276 274 272 270 269 265 262
358 316 68 161 171 168 182 181 187 192 189 193 185 175 168 158 193 198 189 205 248 234 208 192 189 186 180 181 181 185 192 194 190 187 189 191 194 192 193 201 234 305 337 350 354 358 1 2 360 358 355 353 353 352 351 350 347 346 345 344 344 344 344 342 341 340 340 338 336 334 332 332 331 329 328 326 324 320 317 313 308 303 299 295 292 289 286 284 283 280 277 275 275 273 273 271 267
116 289 9 154 200 179 178 188 194 196 196 200 193 176 171 168 186 195 201 223 251 214 190 183 181 180 182 185 186 191 192 191 189 188 194 199 200 198 198 205 246 311 348 358 357 359 1 359 356 353 353 352 352 352 351 349 347 346 345 344 343 343 344 343 343 343 342 340 338 336 333 331 330 329 329 327 326 324 321 318 313 309 305 301 297 294 290 286 283 282 278 274 274 273 273 274 272
114 273 330 103 210 198 188 203 203 206 209 205 191 179 193 196 187 190 207 223 223 191 182 181 181 181 187 191 192 193 192 192 191 193 197 200 199 197 199 210 239 328 0 4 0 0 360 356 354 351 351 352 351 351 350 347 346 345 344 344 344 343 342 342 343 343 342 342 341 338 335 332 330 328 328 328 326 324 322 320 317 313 308 304 300 297 294 290 285 282 280 276 273 271 271 274 275
129 269 309 315 271 275 217 214 206 206 209 197 188 205 224 189 185 210 209 206 197 185 182 182 184 187 189 193 196 194 195 194 192 194 195 195 194 197 201 210 247 5 7 7 5 0 359 354 351 351 350 349 349 349 348 345 343 343 344 344 343 342 341 340 339 340 341 342 341 341 339 335 332 329 327 326 325 324 322 320 318 316 311 307 303 300 297 294 291 286 282 279 276 273 269 270 274
310 308 302 291 286 295 252 227 218 207 212 208 197 314 165 165 171 239 201 187 184 181 180 185 188 191 190 193 196 194 197 196 193 194 190 189 189 192 194 182 38 33 20 11 9 3 359 353 351 350 348 347 348 348 345 343 343 343 344 344 343 341 340 338 337 336 337 338 339 339 337 335 333 331 328 326 324 323 322 321 319 317 313 309 305 301 298 296 294 291 287 283 279 277 273 269 272
318 326 312 297 314 311 263 243 223 198 212 220 197 26 261 164 218 238 197 182 185 184 182 187 191 193 192 193 194 192 195 195 192 191 189 191 189 187 181 139 67 42 27 17 15 7 360 354 351 349 346 347 347 346 344 342 343 345 345 345 343 342 340 338 337 336 337 337 339 338 337 336 334 333 331 328 325 323 322 321 319 318 315 311 305 301 298 296 294 292 290 287 282 279 276 272 272
325 3 332 310 349 344 285 280 211 187 206 210 176 322 258 211 237 234 195 185 184 187 188 189 192 194 195 194 193 193 194 193 189 190 193 193 194 190 179 143 72 37 26 21 13 4 359 353 349 346 345 346 346 345 344 343 345 346 346 344 342 341 339 337 336 336 336 337 338 339 340 339 338 337 335 332 329 326 324 322 320 318 316 313 307 301 297 294 293 292 290 289 286 281 277 273 272
325 37 29 326 354 342 297 359 184 183 198 176 147 277 254 227 236 223 188 186 182 186 193 192 193 195 196 196 195 194 193 194 193 194 198 198 198 193 182 173 93 29 19 14 7 2 356 350 346 345 345 345 345 344 343 344 345 344 343 341 339 337 335 334 333 333 333 334 336 337 338 339 339 337 336 334 332 329 327 324 322 319 317 314 309 304 297 293 292 292 291 290 288 286 281 276 274
345 12 43 11 353 289 291 346 149 155 201 177 140 261 258 253 247 219 191 191 187 189 195 195 196 197 198 198 197 198 195 196 199 198 201 200 195 189 181 173 77 14 6 1 360 358 352 348 347 345 345 344 344 344 343 344 343 342 340 338 337 335 333 332 331 332 332 333 333 333 333 333 333 333 332 332 331 330 328 325 323 320 316 312 308 305 299 294 290 289 290 291 289 287 286 281 278
28 357 314 341 340 272 304 300 177 171 200 179 148 255 265 271 262 222 195 194 193 195 199 198 200 199 199 200 199 200 198 197 200 201 203 201 198 197 198 207 354 351 351 353 356 354 349 348 348 347 345 344 344 344 343 343 341 340 338 336 335 333 331 330 329 330 330 330 329 328 328 328 328 328 328 329 328 328 327 324 321 319 316 311 306 302 298 294 291 287 286 289 290 288 287 285 282
4 80 244 269 245 291 317 308 214 208 160 182 193 246 270 277 276 213 194 196 198 200 203 202 204 203 201 203 202 200 199 199 200 203 206 204 206 216 226 256 315 332 338 346 350 350 349 348 348 348 346 344 345 344 343 342 340 338 335 333 332 331 329 328 328 328 329 329 328 328 327 326 325 325 326 327 326 326 325 323 321 319 316 311 305 299 295 292 290 289 284 283 287 289 288 286 285
322 7 258 247 232 253 295 308 299 204 168 214 224 244 259 266 290 188 195 199 201 205 210 208 207 206 204 204 203 202 201 203 204 206 209 207 211 226 239 268 298 317 329 337 344 347 348 348 347 347 345 343 344 343 342 340 336 334 333 331 330 329 329 328 328 329 330 330 329 329 328 327 326 325 326 326 325 325 324 323 321 319 316 313 308 300 293 289 286 287 287 284 282 285 288 287 286
247 265 280 284 262 223 240 272 303 105 213 231 225 249 261 269 269 208 204 203 206 212 215 215 212 208 206 205 204 205 204 207 210 210 209 209 214 229 244 266 288 308 325 334 342 345 346 346 345 345 342 342 343 341 338 336 334 333 332 330 329 330 331 331 330 329 329 329 328 327 326 326 325 325 326 326 326 325 325 324 321 319 317 314 310 302 294 289 284 282 284 287 284 280 283 286 287
203 220 215 258 271 259 240 243 254 207 250 250 231 242 262 271 269 233 213 208 212 220 221 220 217 212 209 208 207 207 208 210 211 210 209 211 217 230 245 263 284 305 322 331 339 342 343 344 343 343 341 341 341 338 335 334 333 333 331 330 330 332 332 331 329 328 326 327 327 326 325 325 325 326 328 328 328 328 327 326 323 320 318 313 309 304 296 287 283 281 279 284 287 282 278 281 286
165 187 221 246 249 273 271 255 269 178 216 260 236 234 258 266 269 255 223 213 216 223 226 225 220 216 213 211 210 209 211 212 210 209 210 212 217 229 245 258 281 303 315 326 335 340 341 342 341 340 341 340 339 337 336 336 336 335 334 333 333 333 332 329 327 326 324 325 325 325 325 325 326 327 328 330 330 330 330 329 326 323 320 315 310 306 298 288 280 278 278 280 284 285 281 278 283
162 207 249 273 234 258 277 283 308 192 181 264 246 235 257 259 268 264 221 204 218 220 221 225 221 219 217 214 213 211 211 210 207 208 208 210 215 226 242 254 276 296 306 320 332 338 338 339 339 340 341 339 338 337 337 337 337 336 335 334 333 332 331 328 326 326 326 326 326 326 326 326 327 327 329 331 331 333 333 331 329 324 321 317 311 305 299 291 281 275 277 280 280 282 282 278 281
178 189 231 282 249 270 292 307 340 2 170 268 274 258 259 258 267 265 223 203 225 223 222 225 221 218 218 216 214 211 209 206 205 207 207 209 215 223 237 250 272 287 302 319 328 334 335 338 340 340 340 338 337 337 337 337 336 336 334 332 330 328 328 327 326 327 327 327 328 328 329 329 329 329 330 331 330 331 332 331 328 324 320 316 311 305 298 292 285 277 275 279 280 280 280 278 278
195 188 204 267 274 305 285 302 342 333 231 266 286 276 263 255 261 266 244 222 232 232 229 230 226 223 223 220 217 212 208 205 204 205 205 207 211 220 234 247 266 282 298 315 323 329 333 338 339 338 337 336 337 336 336 336 334 332 330 327 326 325 325 326 326 327 327 328 329 329 329 329 329 328 329 330 328 329 330 331 329 325 320 315 309 302 296 291 288 284 279 277 278 278 277 277 275
249 207 204 243 265 247 242 291 338 324 306 310 320 297 268 233 243 261 268 233 238 238 233 233 231 230 229 225 221 216 211 208 205 203 203 205 209 220 232 241 259 277 292 311 321 329 333 337 338 336 336 335 335 335 335 334 331 328 326 323 323 322 323 324 324 324 325 326 326 326 326 326 327 328 328 329 329 329 331 332 331 326 319 313 307 299 290 286 285 286 285 281 278 275 275 275 274
298 231 208 226 250 257 269 326 351 347 327 345 14 322 276 200 230 257 290 283 250 238 231 234 232 229 228 226 223 218 213 211 210 207 205 205 210 219 230 238 254 272 289 311 323 329 333 335 336 335 335 334 334 334 334 332 330 327 326 325 325 325 325 325 325 324 325 325 325 325 325 324 325 325 326 327 327 328 330 331 330 326 319 311 306 298 286 279 276 273 274 276 276 276 273 272 272
296 245 194 202 224 267 300 354 6 309 268 290 66 313 274 277 210 246 256 260 259 246 233 237 234 227 225 226 223 216 212 210 210 209 206 205 210 218 227 236 250 268 289 311 324 329 332 333 335 334 333 333 333 333 333 331 328 327 327 327 327 327 326 326 326 325 325 325 324 324 324 323 323 323 324 325 325 325 326 328 328 326 320 312 306 300 285 274 270 267 265 268 271 274 272 268 269
240 228 139 128 127 249 224 85 14 245 270 281 160 173 274 279 241 243 244 245 263 262 249 243 233 227 226 226 223 216 212 210 206 204 203 205 211 219 226 236 248 265 291 312 324 329 330 330 333 334 333 333 332 332 332 330 328 327 327 326 325 325 325 324 324 324 324 324 322 322 322 322 322 322 322 323 323 324 324 325 325 324 320 312 306 302 291 276 268 265 263 265 267 270 270 266 267
240 198 120 104 105 153 149 113 258 287 351 289 205 148 268 277 249 278 302 238 257 261 253 247 229 226 227 224 220 216 212 209 206 203 203 206 213 219 225 234 248 268 294 314 324 327 328 329 331 333 332 331 331 331 330 329 328 327 326 325 324 324 324 323 323 323 323 323 321 321 321 320 321 321 321 322 322 324 324 322 322 322 319 313 306 303 298 284 271 265 262 263 266 266 264 264 266
211 135 96 60 65 72 71 76 318 33 330 271 229 154 224 274 230 159 29 240 245 253 253 252 234 228 227 221 217 214 210 207 205 205 206 209 214 218 224 232 247 273 297 315 324 325 327 327 329 332 332 331 330 329 329 328 327 326 325 324 323 324 324 323 322 322 322 322 320 320 320 320 320 320 321 321 322 323 322 321 320 319 317 312 305 301 300 292 277 268 264 264 266 265 264 263 265
120 93 54 19 26 46 48 47 68 52 278 268 229 173 188 277 246 168 184 219 217 231 252 257 236 228 223 218 215 212 207 203 203 205 207 209 213 216 223 231 247 275 300 315 321 323 325 327 328 330 332 330 329 329 328 327 327 325 324 324 324 324 324 323 322 322 322 321 320 319 319 319 319 320 321 321 322 322 320 318 317 316 315 309 303 300 299 296 284 272 266 264 264 264 264 265 265
96 76 49 7 336 13 20 355 47 71 256 271 230 173 186 243 245 190 224 247 220 214 244 249 232 222 215 214 214 210 205 202 201 202 203 205 210 215 221 232 250 276 301 313 319 322 325 327 328 329 331 330 329 328 328 327 326 325 323 323 324 325 324 323 322 321 321 320 319 319 319 319 319 320 321 320 321 321 318 317 315 314 313 309 302 298 297 295 288 277 269 265 264 263 261 264 266
89 90 76 39 334 354 346 307 48 223 246 256 122 140 216 245 246 237 243 255 247 223 228 239 236 222 212 211 212 207 202 201 200 201 202 205 210 214 222 233 253 279 301 312 318 321 324 327 327 328 330 330 329 328 327 326 324 323 323 324 324 325 324 323 321 320 320 320 319 318 318 319 319 320 321 320 320 320 317 315 314 312 311 309 303 297 296 293 287 280 274 269 268 265 260 262 263
147 144 128 128 105 340 279 269 268 266 268 251 131 123 269 270 261 234 231 243 251 243 241 246 248 236 223 216 210 205 201 200 201 201 203 206 209 215 223 235 254 281 302 310 316 320 323 325 326 327 329 329 328 327 326 324 323 323 324 324 325 325 324 322 321 320 320 320 318 317 317 318 318 319 320 319 318 318 316 314 313 310 309 308 303 298 297 293 284 280 275 269 266 263 260 261 262
177 162 139 148 152 181 234 237 242 280 302 276 158 140 250 270 272 222 232 258 271 271 263 258 255 245 233 218 207 202 199 199 200 202 204 207 211 216 223 234 256 279 299 308 315 319 321 324 325 326 328 329 328 326 325 323 323 325 325 326 326 325 324 322 321 320 320 319 318 317 317 317 317 317 318 318 317 317 316 314 312 309 307 307 303 299 297 293 283 274 268 264 263 263 262 262 262
210 134 115 171 182 171 207 235 214 286 319 285 202 204 229 242 260 215 229 305 287 291 284 262 241 228 214 206 201 199 198 198 199 201 204 207 210 215 223 232 254 278 297 307 314 318 321 324 325 327 328 329 328 326 325 324 325 326 326 327 327 325 324 322 320 320 319 318 317 316 317 317 317 317 317 317 316 315 315 313 311 307 304 304 302 297 294 292 285 273 268 267 265 265 264 260 260
167 136 179 215 181 134 146 279 335 72 290 274 264 266 275 310 292 211 125 301 273 300 302 233 208 201 197 200 199 197 197 197 199 201 203 206 209 214 222 233 253 277 295 304 313 318 322 324 324 328 329 328 327 326 325 326 326 327 327 328 327 325 324 322 320 320 319 318 317 317 317 317 316 317 316 316 316 315 313 311 309 305 302 301 300 296 292 289 285 277 272 271 266 265 263 257 257
129 180 213 197 120 90 109 272 340 43 253 271 291 282 283 297 296 285 67 272 255 261 261 217 201 196 198 202 200 198 198 197 199 202 204 208 211 215 221 235 257 277 293 302 313 318 322 325 325 327 328 327 327 326 327 328 328 328 329 328 328 326 324 322 320 319 319 318 318 317 317 316 317 317 316 316 315 314 312 310 308 304 301 301 300 296 292 289 287 282 277 275 270 267 263 255 254
128 189 215 130 139 143 103 156 244 212 242 269 290 296 281 265 248 260 232 228 236 236 215 202 205 203 204 204 200 198 196 196 199 202 205 208 209 215 223 236 257 274 290 301 314 320 323 326 325 327 328 328 329 328 329 330 329 330 330 329 328 326 324 322 320 320 319 319 318 318 317 317 318 318 316 315 314 312 312 310 308 304 301 301 300 297 295 292 290 286 283 280 276 271 266 257 253
94 179 330 54 169 175 163 172 190 173 223 268 299 314 286 257 196 209 214 209 216 215 202 204 209 208 207 203 199 197 196 198 201 202 204 208 210 216 226 239 255 270 287 301 314 321 324 326 325 326 327 327 329 330 330 330 331 331 330 329 328 325 324 322 321 320 319 319 319 319 319 319 318 318 317 315 313 312 313 311 307 304 300 300 299 296 292 288 284 282 280 277 274 271 265 258 254
164 206 225 216 170 131 216 218 166 163 214 254 283 290 278 259 153 194 206 198 208 206 201 207 212 212 210 204 200 198 198 199 202 203 204 207 211 217 226 240 253 265 285 304 315 321 324 324 324 326 327 329 330 331 331 331 331 331 330 328 327 326 325 323 321 320 319 320 321 321 321 320 318 318 317 315 314 313 312 309 304 301 299 297 295 291 287 283 279 279 279 277 276 275 268 261 258
183 197 199 196 184 149 238 249 216 177 216 225 167 270 272 264 137 187 192 185 208 206 198 203 212 213 210 207 205 201 200 201 202 203 205 208 212 217 227 239 250 264 287 306 314 319 323 322 323 326 328 330 331 331 332 332 331 330 329 329 328 327 325 323 321 320 320 321 323 322 322 321 319 319 318 315 313 311 308 306 302 298 297 295 290 286 284 281 278 278 281 283 281 278 272 265 259